EW7837 Weather Reports


time (UTC)temp
C
wind
direction
speed
KPH
gust
KPH
rain 1hr
cm
rain 24hr
cm
rain mn
cm
humidity
%
barometer
mb
20260905133025 16 232 0.0 0.0 0.00 0.00 0.00 90 1009.6
20260905131528 15 232 0.0 0.0 0.00 0.00 0.00 91 1009.4
20260905130025 16 232 0.0 0.0 0.00 0.00 0.00 90 1009.4
20260905124524 15 232 0.0 0.0 0.00 0.00 0.00 91 1009.3
20260905123022 15 232 0.0 0.0 0.00 0.00 0.00 90 1009.1
20260905121526 15 232 0.0 0.0 0.00 0.00 0.00 90 1009.1
20260905120018 15 232 0.0 0.0 0.00 0.00 0.00 90 1009.1
20260905114518 15 232 0.0 0.0 0.00 0.00 0.00 90 1009.1
20260905113020 15 233 0.0 0.0 0.00 0.00 0.00 90 1009.4
20260905111520 15 232 0.0 0.0 0.00 0.00 0.00 90 1009.1
20260905110013 15 232 0.0 0.0 0.00 0.00 0.00 89 1009.5
20260905104516 15 232 0.0 0.0 0.00 0.00 0.00 89 1009.5
20260905103013 16 232 0.0 0.0 0.00 0.00 0.00 89 1009.5
20260905101511 16 232 0.0 0.0 0.00 0.00 0.00 89 1009.5
20260905100046 16 232 0.0 0.0 0.00 0.00 0.00 89 1009.4
20260905094547 16 232 0.0 0.0 0.00 0.00 0.00 89 1009.6
20260905093044 16 232 0.0 0.0 0.00 0.00 0.00 88 1009.6
20260905091602 16 232 0.0 0.0 0.00 0.00 0.00 89 1009.8
20260905090032 16 232 0.0 0.0 0.00 0.00 0.00 88 1010.0
20260905084539 16 232 0.0 0.0 0.00 0.00 0.00 88 1009.6
20260905083029 17 232 0.0 0.0 0.00 0.00 0.00 88 1010.1
20260905081530 17 232 0.0 0.0 0.00 0.00 0.00 88 1010.2
20260905080038 17 232 0.0 0.0 0.00 0.00 0.00 87 1010.2
20260905074530 17 232 0.0 0.0 0.00 0.00 0.00 87 1010.5
20260905073026 17 232 0.0 0.0 0.00 0.00 0.00 87 1010.2
20260905071523 17 232 0.0 0.0 0.00 0.00 0.00 87 1010.5
20260905070038 17 232 0.0 0.0 0.00 0.00 0.00 86 1010.5
20260905064518 18 232 0.0 0.0 0.00 0.00 0.00 86 1010.5
20260905063117 18 232 0.0 0.0 0.00 0.00 0.00 86 1010.5
20260905061550 18 232 0.0 0.0 0.00 0.00 0.00 86 1010.1
20260905060045 18 232 0.0 0.0 0.00 0.00 0.00 85 1010.1
20260905054532 18 232 0.0 0.0 0.00 0.00 0.00 84 1010.3
20260905053010 18 232 0.0 0.0 0.00 0.00 0.00 84 1010.4
20260905051506 18 232 0.0 0.0 0.00 0.00 0.00 83 1010.4
20260905050004 19 232 0.0 0.0 0.00 0.00 0.00 82 1010.0
20260905044601 20 232 0.0 0.0 0.00 0.00 0.00 82 1009.9
20260905044503 20 232 0.0 0.0 0.00 0.00 0.00 82 1009.9
20260905043059 20 232 0.0 0.0 0.00 0.00 0.00 81 1010.0
20260905043001 20 232 0.0 0.0 0.00 0.00 0.00 81 1010.0
20260905041527 20 232 0.0 0.0 0.00 0.00 0.00 80 1009.9
20260905040024 21 232 0.0 0.0 0.00 0.00 0.00 80 1009.8
20260905034527 21 232 0.0 0.0 0.00 0.00 0.00 80 1009.5
20260905033024 21 232 0.0 0.0 0.00 0.00 0.00 80 1009.1
20260905031517 21 232 0.0 0.0 0.00 0.00 0.00 79 1009.0
20260905030017 21 232 0.0 0.0 0.00 0.00 0.00 79 1009.2
20260905024511 21 232 0.0 0.0 0.00 0.00 0.00 79 1009.0
20260905023009 22 232 0.0 0.0 0.00 0.00 0.00 78 1009.0
20260905021510 22 232 0.0 0.0 0.00 0.00 0.00 76 1009.0
20260905020012 23 232 0.0 0.0 0.00 0.00 0.00 74 1008.7
20260905014536 23 232 0.0 0.0 0.00 0.00 0.00 72 1008.5
20260905013036 24 232 0.0 0.0 0.00 0.00 0.00 71 1008.9
20260905011534 25 221 0.0 0.0 0.00 0.00 0.00 69 1008.9
20260905010033 25 250 0.0 0.0 0.00 0.00 0.00 67 1008.8
20260905004533 26 252 0.0 0.0 0.00 0.00 0.00 66 1008.9
20260905003033 26 255 0.0 0.0 0.00 0.00 0.00 64 1008.6
20260905001530 26 252 0.0 0.0 0.00 0.00 0.00 63 1008.6
20260905000030 26 238 0.0 0.0 0.00 0.00 0.00 62 1008.6
20260904234537 26 248 0.0 0.0 0.00 0.00 0.00 60 1009.0
20260904233026 26 255 0.0 0.0 0.00 0.00 0.00 61 1009.0
20260904231524 26 210 0.0 0.0 0.00 0.00 0.00 61 1009.0
20260904230023 26 252 0.0 0.0 0.00 0.00 0.00 61 1009.0
20260904224522 26 259 0.0 0.0 0.00 0.00 0.00 62 1009.0
20260904223022 26 255 0.0 0.0 0.00 0.00 0.00 62 1009.2
20260904221558 26 244 0.0 0.0 0.00 0.00 0.00 63 1009.6
20260904220058 26 239 0.0 0.0 0.00 0.00 0.00 63 1010.0
20260904214558 26 247 0.0 0.0 0.00 0.00 0.00 63 1009.9
20260904213105 26 218 0.0 0.0 0.00 0.00 0.00 62 1009.5
20260904211547 26 258 0.0 0.0 0.00 0.00 0.00 63 1009.4
20260904210047 26 250 0.0 0.0 0.00 0.00 0.00 63 1009.9
20260904204534 26 248 0.0 0.0 0.00 0.00 0.00 63 1010.0
20260904203042 25 272 0.0 0.0 0.00 0.00 0.00 64 1010.0
20260904201511 26 257 0.0 0.0 0.00 0.00 0.00 64 1010.0
20260904200014 26 249 0.0 0.0 0.00 0.00 0.00 64 1009.7
20260904194509 26 270 0.0 0.0 0.00 0.00 0.00 63 1010.2
20260904193010 25 254 0.0 0.0 0.00 0.00 0.00 63 1010.4
20260904191505 26 261 0.0 0.0 0.00 0.00 0.00 63 1010.5
20260904190007 26 279 0.0 0.0 0.00 0.00 0.00 63 1010.6
20260904184606 25 269 0.0 0.0 0.00 0.00 0.00 66 1010.5
20260904183056 25 247 0.0 0.0 0.00 0.00 0.00 65 1010.7
20260904181542 25 245 0.0 0.0 0.00 0.00 0.00 64 1010.6
20260904180020 25 247 0.0 0.0 0.00 0.00 0.00 64 1010.6
20260904174515 25 254 0.0 0.0 0.00 0.00 0.00 64 1010.5
20260904173012 25 240 0.0 0.0 0.00 0.00 0.00 65 1010.6
20260904171507 25 229 0.0 0.0 0.00 0.00 0.00 66 1010.6
20260904170004 25 250 0.0 0.0 0.00 0.00 0.00 65 1010.6
20260904164600 24 250 0.0 0.0 0.00 0.00 0.00 68 1010.6
20260904163028 23 250 0.0 0.0 0.00 0.00 0.00 70 1010.3
20260904161521 22 250 0.0 0.0 0.00 0.00 0.00 72 1010.5
20260904160020 22 250 0.0 0.0 0.00 0.00 0.00 73 1010.5
20260904154511 21 250 0.0 0.0 0.00 0.00 0.00 77 1010.4
20260904153008 21 250 0.0 0.0 0.00 0.00 0.00 78 1010.0
20260904151503 20 250 0.0 0.0 0.00 0.00 0.00 83 1010.2
20260904150058 20 250 0.0 0.0 0.00 0.00 0.00 86 1010.1
20260904144554 18 250 0.0 0.0 0.00 0.00 0.00 88 1010.1
20260904143054 17 250 0.0 0.0 0.00 0.00 0.00 88 1010.1
20260904141554 17 250 0.0 0.0 0.00 0.00 0.00 88 1009.6
20260904140027 17 250 0.0 0.0 0.00 0.00 0.00 88 1009.8
20260904134516 17 250 0.0 0.0 0.00 0.00 0.00 88 1009.7